sat.trackr.live / text

‹ back to catalog

STARLINK-3234

NORAD 50815 · 2022-001N

PAYLOAD ACTIVE UNKNOWN

§ Identity

Operator
Country
US
Launch date
2022-01-06
Launch site
AFETR
Launch vehicle
Mass (kg)
RCS (m²)

Purposes: comms

External: N2YO · Heavens-Above · Gunter

§ Orbital elements

Epoch: 2026-05-24T19:51:17.951040Z

Period
95.44 min
Inclination
53.2121°
Eccentricity
0.0001088
Mean motion
15.08833931 rev/d
Perigee alt
539.0 km
Apogee alt
540.5 km
Semi-major
6,917.9 km
B*
-2.3259e-5
RAAN
187.3264°
Arg perigee
92.6476°
Mean anomaly
267.4641°
Rev number
24,190

§ Raw data

STARLINK-32341 50815U 22001N   26144.82729110 -.00000658  00000+0 -23259-4 0  99962 50815  53.2121 187.3264 0001088  92.6476 267.4641 15.08833931241904

JSON: /api/v1/satellites/50815 · /tle

For live sub-satellite position, see the globe view (requires WebGL).

§ Visibility from observer

Set your observer location to see the next 7 days of passes ≥ 10°. The values pass through the URL so the page stays shareable.

No JS? Fill the form by hand. The geolocation button needs JavaScript.